Location: Cruquius
(52.3348°N, 4.6319°E)
Time: 08:37:31
(UTC+00:00)

Nadezhda 3 Rocket - Pass Details

Date: 12 May 2021
Orbit: 956 x 1000 km, 82.9° (Epoch: 20 June)

Event Time Altitude Azimuth Distance (km) Brightness Sun altitude
Exits shadow 23:01:08 30° 151° (SSE) 1,691 4.7 -18.8°
Maximum altitude 23:04:03 52° 92° (E) 1,199 4.4 -18.9°
Drops below altitude 10° 23:10:02 10° 18° (NNE) 2,719 7.3 -19.0°
Sets 23:12:36 0° 14° (NNE) 3,665 8.3 -19.1°
